Tracking 33165 objects as of 7-Feb-2026
HD Live streaming from Space Station
objects crossing your sky now

KUIPER-00251

Track KUIPER-00251 now!
10-day predictions
KUIPER-00251 is classified as:


NORAD ID: 67156
Int'l Code: 2025-301Z
Perigee: 456.5 km
Apogee: 470.3 km
Inclination: 51.9 °
Period: 93.7 minutes
Semi major axis: 6834 km
RCS: Unknown
Launch date: December 15, 2025
Source: United States (US)
Launch site: AIR FORCE EASTERN TEST RANGE (AFETR)
Your satellite tracking list
Your tracking list is empty




NASA's NSSDC Master Catalog

Two Line Element Set (TLE):
1 67156U 25301Z   26038.65672770  .00041550  00000-0  11486-2 0  9992
2 67156  51.8661 210.6747 0010076 291.8619  68.1295 15.36575432  9305
Source of the keplerian elements: AFSPC